Погода в Аксёново-Зиловском

Россия / Забайкальский край     53°04′15″N   117°30′21″E
темп.,
°C
ветер,
м/с
пор.,
м/с
влажн.,
%
обл.,
%
осадки,
мм/ч
давл.,
гПа
погр.,
м
23 апреля, пт
пт2300:00−2с35449 0.0 1032154
03:00−5св3758100 0.0 1036238
06:00−6с22649 0.0 103865
09:00−2св343199 0.0 10391041
12:00+2с24285 0.0 10381705
15:00+5с45160 0.0 10352103
18:00+5с351688 0.0 10352055
21:000ссз1128100 0.0 103610
24 апреля, сб
сб2400:00−3з223371 0.0 103810
03:00−4зсз223590 0.0 103911
06:00−5зсз22400 0.0 103917
09:00+2зсз35250 0.0 1036496
12:00+8сз56210 0.0 10331399
15:00+11ссз461849 0.0 10291928
18:00+11сз44175 0.0 10272105
21:00+4с223499 0.0 102810
25 апреля, вс
вс2500:00+2в004498 0.0 102910
03:000всв1149100 0.0 102810
06:00−1в1152100 0.0 102710
09:00+4вюв1236100 0.0 1024238
12:00+11ю4617100 0.0 10191550
15:00+11ююз5726100 0.0 10151683
18:00+10юз5752100 0.0 10131153
21:00+7св1160100 0.0 101110
26 апреля, пн
пн2600:00+7в2254100 0.0 100720
03:00+5вюв2273100 0.3 100542
06:00+4св2397100 3.5 1003152
09:00+1с1299100 11.6 1002118
12:00+2зсз2499100 4.6 1000184
15:00+6сз686568 5.0 9991250
18:00+7сз585974 0.0 9991530
21:00+1зсз488749 0.1 1002187
27 апреля, вт
вт2700:000сз388299 0.0 1003219
03:00−2сз388089 0.0 1004208
06:00−3сз248099 0.0 100597
09:000ссз6969100 0.1 1006889
12:00+1ссз71153100 0.8 10061333
15:00+2ссз71041100 0.9 10071657
18:00+1с61048100 0.0 10081657
21:00−4ссз61388100 0.6 1012969